Regional Weather Roundup
Issued by NWS Albany, NY

Home | Current Version | Previous Version | Graphics & Text | Print | Product List | Glossary Off
Versions: 1 2 3 4 5 6 7 8 9 10 11 12 13 14 15 16 17 18 19 20 21 22 23 24 25 26 27

000
ASUS41 KALY 202210
RWRALY

NEW YORK STATE HOURLY WEATHER ROUNDUP
NATIONAL WEATHER SERVICE ALBANY NY
600 PM EDT FRI OCT 20 2017

NOTE: "FAIR" INDICATES FEW OR NO CLOUDS BELOW 12,000 FEET WITH NO
SIGNIFICANT WEATHER AND/OR NO OBSTRUCTIONS TO VISIBILITY.

NYZ032-033-038>043-046>054-057>066-NYZ062>081-082-084-202300-
EAST


CITY           SKY/WX    TMP DP  RH WIND       PRES   REMARKS
ALBANY         PTCLDY    64  35  34 W8        30.12R
GLENS FALLS    CLEAR     62  34  35 NW6       30.11R
POUGHKEEPSIE   CLEAR     65  38  36 N5        30.11R
NEWBURGH       CLEAR     68  41  37 CALM      30.14R
MONTGOMERY     CLEAR     66  37  34 NW6       30.12R
WHITE PLAINS   CLEAR     65  38  36 NW3       30.11R
ISLIP          PTCLDY    66  39  37 NW7       30.10R
NEW YORK CITY  PTCLDY    72  39  30 NW13      30.10R
CENTRAL PARK   CLEAR     71  34  25 VRB6      30.14
$$

NYZ005>009-017-018-044>046-055-056-202300-
CENTRAL


CITY           SKY/WX    TMP DP  RH WIND       PRES   REMARKS
FULTON         CLEAR     60  37  42 CALM      30.19S
SYRACUSE       PTCLDY    60  36  40 W6        30.18S
ROME           CLEAR     59  35  40 NW6       30.18F
ELMIRA         CLEAR     65  39  38 E6        30.20S
BINGHAMTON     CLEAR     60  33  36 NW6       30.20S
MONTICELLO     CLEAR     63  31  30 NW7       30.19R
$$

NYZ026>034-041>043-087-202300-
NORTH


CITY           SKY/WX    TMP DP  RH WIND       PRES   REMARKS
WATERTOWN      CLEAR     56  46  69 S6        30.17S
FORT DRUM      NOT AVBL
OGDENSBURG     FAIR      60  42  52 SW7       30.14R
MASSENA        CLEAR     60  42  51 SW9       30.13R
SARANAC LAKE   CLEAR     57  32  38 W5        30.13S
PLATTSBURGH    CLEAR     62  33  33 NW5       30.09S
$$

NYZ001>004-010>016-019>021-085-202300-
WEST


CITY           SKY/WX    TMP DP  RH WIND       PRES   REMARKS
NIAGARA FALLS  CLEAR     64  35  34 SW10      30.18F
BUFFALO        PTCLDY    63  36  36 SW7       30.19F
DUNKIRK        CLEAR     62  49  62 CALM      30.21F
JAMESTOWN      CLEAR     64  37  36 CALM      30.24S
WELLSVILLE     CLEAR     66  33  29 W5        30.25S
ROCHESTER      PTCLDY    65  39  38 SW6       30.19F
PENN YAN       CLEAR     58  42  55 SE6       30.21S
$$

             KEY
       WCI = WIND CHILL INDEX
       VSB = VISIBILITY
       HX  = HEAT INDEX
$$




USA.gov is the U.S. government's official web portal to all federal, state and local government web resources and services.